Location: Makanda
(37.6176°N, 89.2090°W)
Time: 01:43:08
(UTC+00:00)

MSX - Pass Details

Date: 23 September 2019
Orbit: 894 x 906 km, 98.7° (Epoch: 18 October)

Event Time Altitude Azimuth Distance (km) Brightness Sun altitude
Rises 10:43:52 0° 5° (N) 3,525 7.1 -12.9°
Reaches altitude 10° 10:46:24 10° 358° (N) 2,579 6.3 -12.4°
Maximum altitude 10:51:44 41° 290° (WNW) 1,280 4.2 -11.4°
Drops below altitude 10° 10:57:01 10° 222° (SW) 2,559 5.8 -10.4°
Sets 10:59:32 0° 216° (SW) 3,495 6.5 -9.9°
